St. Petersburg Airport, FL

2:18 AM EDT on April 27, 2017 (GMT -0400)
Saint Petersburg-Clearwater International

Weather History for KPIE - July, 2013

Change the Weather History Date:

Monday, July 15, 2013

  Actual Average Record
Temperature  
Mean Temperature 82 °F -  
Max Temperature 90 °F 89 °F 95 °F (1958)
Min Temperature 75 °F 76 °F 70 °F (1967)
Cooling Degree Days 18    
Growing Degree Days 32 (Base 50)    
Moisture  
Dew Point 72 °F    
Average Humidity 75    
Maximum Humidity 90    
Minimum Humidity 53    
Precipitation  
Precipitation 0.00 in - - ()
Sea Level Pressure  
Sea Level Pressure 30.08 in    
Wind  
Wind Speed 8 mph (East)    
Max Wind Speed 14 mph    
Max Gust Speed 25 mph    
Visibility 10 miles    
Events Thunderstorm    
Averages and records for this station are not official NWS values.
T = Trace of Precipitation, MM = Missing Value Source: NWS Daily Summary

Daily Weather History Graph

Daily Weather History Graph

Search for Another Location

Airport or City:

Trip Planner

Search our weather history database for the weather conditions in past years. The results will help you decide how hot, cold, wet, or windy it might be!

Date:

Astronomy

Jul. 15, 2013 Rise Set
Actual Time 6:44 AM EDT 8:28 PM EDT
Civil Twilight 6:18 AM EDT 8:54 PM EDT
Nautical Twilight 5:46 AM EDT 9:26 PM EDT
Astronomical Twilight 5:13 AM EDT 9:59 PM EDT
Moon 1:20 PM EDT (7/15) 12:19 AM EDT (7/15)
Length of Visible Light 14h 36m
Length of Day
13h 44m
Waxing Crescent, 45% of the Moon is Illuminated
Jul 15
Waxing Crescent
Jul 15
First Quarter
Jul 22
Full
Jul 29
Last Quarter
Aug 6
New

Hourly Weather History & Observations

Time (EDT) Temp. Heat Index Dew Point Humidity Pressure Visibility Wind Dir Wind Speed Gust Speed Precip Events Conditions
12:53 AM 75.0 °F - 72.0 °F 90% 30.09 in 10.0 mi SE 8.1 mph - N/A   Clear
1:53 AM 75.9 °F - 71.1 °F 85% 30.09 in 10.0 mi SE 10.4 mph - N/A   Overcast
2:53 AM 75.9 °F - 72.0 °F 87% 30.07 in 10.0 mi ESE 9.2 mph - N/A   Overcast
3:53 AM 75.0 °F - 72.0 °F 90% 30.07 in 10.0 mi ESE 10.4 mph - N/A   Partly Cloudy
4:53 AM 75.0 °F - 72.0 °F 90% 30.06 in 10.0 mi ESE 5.8 mph - N/A   Partly Cloudy
5:53 AM 75.0 °F - 72.0 °F 90% 30.07 in 10.0 mi ESE 5.8 mph - N/A   Partly Cloudy
6:53 AM 75.9 °F - 72.0 °F 87% 30.09 in 10.0 mi ESE 5.8 mph - N/A   Partly Cloudy
7:53 AM 77.0 °F - 72.0 °F 84% 30.10 in 10.0 mi East 8.1 mph - N/A   Mostly Cloudy
8:53 AM 79.0 °F - 71.1 °F 77% 30.11 in 10.0 mi ESE 11.5 mph - N/A   Clear
9:53 AM 81.0 °F 85.2 °F 72.0 °F 74% 30.11 in 10.0 mi East 9.2 mph - N/A   Clear
10:53 AM 82.0 °F 87.4 °F 73.0 °F 74% 30.12 in 10.0 mi East 6.9 mph - N/A   Partly Cloudy
11:53 AM 84.0 °F 89.6 °F 72.0 °F 67% 30.12 in 10.0 mi East 8.1 mph - N/A   Partly Cloudy
12:53 PM 84.9 °F 90.1 °F 71.1 °F 63% 30.10 in 10.0 mi Variable 3.5 mph - N/A   Clear
1:53 PM 86.0 °F 91.5 °F 71.1 °F 61% 30.09 in 10.0 mi NE 4.6 mph - N/A   Scattered Clouds
2:53 PM 87.1 °F 92.8 °F 71.1 °F 59% 30.07 in 10.0 mi NNE 3.5 mph - N/A   Scattered Clouds
3:53 PM 88.0 °F 92.1 °F 69.1 °F 53% 30.05 in 10.0 mi Calm Calm - N/A   Clear
4:53 PM 90.0 °F 96.9 °F 72.0 °F 55% 30.03 in 10.0 mi NE 11.5 mph 17.3 mph N/A   Scattered Clouds
5:05 PM 84.2 °F 89.6 °F 71.6 °F 66% 30.02 in 10.0 mi ENE 13.8 mph 25.3 mph N/A Thunderstorm Scattered Clouds
5:13 PM 82.4 °F 88.2 °F 73.4 °F 74% 30.03 in 10.0 mi ENE 11.5 mph 20.7 mph N/A Thunderstorm Thunderstorm
5:53 PM 81.0 °F 85.2 °F 72.0 °F 74% 30.03 in 10.0 mi North 5.8 mph - N/A   Scattered Clouds
6:53 PM 82.0 °F 87.4 °F 73.0 °F 74% 30.02 in 10.0 mi NE 10.4 mph - N/A   Mostly Cloudy
7:53 PM 82.0 °F 86.7 °F 72.0 °F 71% 30.04 in 10.0 mi ENE 8.1 mph - N/A   Clear
8:53 PM 81.0 °F 85.8 °F 73.0 °F 77% 30.06 in 10.0 mi ENE 8.1 mph - N/A   Partly Cloudy
9:53 PM 81.0 °F 86.2 °F 73.9 °F 79% 30.08 in 10.0 mi NE 6.9 mph - N/A   Scattered Clouds
10:41 PM 80.6 °F 85.4 °F 73.4 °F 79% 30.10 in 10.0 mi SE 4.6 mph - N/A   Mostly Cloudy
10:53 PM 81.0 °F 85.8 °F 73.0 °F 77% 30.10 in 10.0 mi SE 8.1 mph - N/A   Mostly Cloudy
11:53 PM 80.1 °F 84.2 °F 73.0 °F 79% 30.11 in 10.0 mi SE 8.1 mph - N/A   Overcast